Location: Fouquenies
(49.4624°N, 2.0492°E)
Time: 13:04:22
(UTC+00:00)

USA 290 - Pass Details

Date: 03 February 2023
Orbit: 401 x 409 km, 73.6° (Epoch: 13 March)

Event Time Altitude Azimuth Distance (km) Brightness Sun altitude
Rises 17:27:40 0° 210° (SSW) 2,340 6.9 -6.5°
Reaches altitude 10° 17:29:42 10° 214° (SW) 1,486 5.9 -6.8°
Maximum altitude 17:32:56 61° 296° (WNW) 479 2.8 -7.3°
Drops below altitude 10° 17:36:13 10° 18° (NNE) 1,507 4.7 -7.8°
Enters shadow 17:38:16 - 22° (NNE) 2,362 5.7 -8.1°
